Location: Eaton Estates
(41.3089°N, 82.0057°W)
Time: 15:33:27
(UTC+00:00)

ADEOS II - Pass Details

Date: 17 June 2021
Orbit: 799 x 800 km, 98.6° (Epoch: 02 August)

Event Time Altitude Azimuth Distance (km) Brightness Sun altitude
Rises 06:11:06 0° 35° (NE) 3,317 6.4 -24.6°
Reaches altitude 10° 06:14:57 10° 64° (ENE) 2,380 5.0 -24.4°
Maximum altitude 06:17:11 13° 89° (E) 2,194 4.5 -24.3°
Drops below altitude 10° 06:19:24 10° 115° (ESE) 2,372 4.4 -24.3°
Enters shadow 06:19:32 10° 116° (ESE) 2,393 4.4 -24.2°
